User: anonymous   Login
Location: Trondheim
(63.4170°N, 10.4170°E)
Time: 05:31:28
(UTC+01:00)
Language:

Iridium 82 - Orbit

View from above orbital plane
View from above orbital plane
View from above satellite
View from above satellite

Ground track
Ground track

The orbit data is extracted from the following two-line orbital elements,

1 25467U 98051A   17052.49747890  .00000003  00000-0 -61451-5 0  9996
2 25467  86.3897  70.5188 0001786  84.5298 275.6101 14.34216115970033
Epoch (UTC): 21 February 2017 11:56:22
Eccentricity: 0.0001786
inclination: 86.3897°
perigee height: 776 km
apogee height: 779 km
right ascension of ascending node: 70.5188°
argument of perigee: 84.5298°
revolutions per day: 14.34216115
mean anomaly at epoch: 275.6101°
orbit number at epoch: 97003

The dashed part of the orbit path shows where the satellite is in the earth's shadow,  

DLR